Regional Weather Roundup
Issued by NWS

Home | Current Version | Previous Version | Graphics & Text | Print | Product List | Glossary On
Versions: 1 2 3 4 5 6 7 8 9 10 11 12 13 14 15 16 17 18 19 20 21 22 23 24 25 26 27 28 29 30 31 32 33 34 35 36 37 38 39 40 41 42 43 44 45 46 47 48 49 50
453
ASUS43 KFSD 042302
RWRSD

WEATHER ROUNDUP FOR SOUTH DAKOTA
NATIONAL WEATHER SERVICE SIOUX FALLS SD
600 PM CDT WED MAY 04 2016

NOTE: "FAIR" INDICATES FEW OR NO CLOUDS BELOW 12,000 FEET WITH NO
SIGNIFICANT WEATHER AND/OR OBSTRUCTIONS TO VISIBILITY.


SDZ001>005-009-010-012>017-050000-
NORTHWEST AND NORTH CENTRAL SOUTH DAKOTA

CITY           SKY/WX    TMP DP  RH WIND       PRES   REMARKS
BUFFALO          N/A     78  38  23 S14G24    29.95F
FAITH            N/A     75  42  30 SE7       30.02F
MOBRIDGE       SUNNY     76  43  30 SE8       29.99F
$$

SDZ012>016-024>037-041>051-057-063-072>074-050000-
SOUTHWEST AND SOUTH CENTRAL SOUTH DAKOTA

CITY           SKY/WX    TMP DP  RH WIND       PRES   REMARKS
RAPID CTY ARPT SUNNY     75  42  30 S14       30.04F
PIERRE         SUNNY     73  36  25 SW3       30.03F
CUSTER         SUNNY     68  30  24 SE10G21   30.14F
ELLSWORTH AFB  SUNNY     76  43  30 S16G25    30.03F
PHILIP         SUNNY     76  44  32 S9        30.03F
PINE RIDGE     SUNNY     76  32  20 CALM      30.07F
WINNER         FAIR      74  39  28 NW8       30.06F
$$

SDZ004>011-016>023-039-040-050000-
NORTHEAST SOUTH DAKOTA

CITY           SKY/WX    TMP DP  RH WIND       PRES   REMARKS
ABERDEEN       SUNNY     75  33  21 N9        30.01F
WATERTOWN      SUNNY     68  27  21 N12       30.01F
BROOKINGS      SUNNY     67  32  27 N12       30.00F
SISSETON         N/A     70  25  18 N9G18     29.99F
$$

SDZ017-020-022-023-036>040-048>070-050000-
SOUTHEAST SOUTH DAKOTA

CITY           SKY/WX    TMP DP  RH WIND       PRES   REMARKS
SIOUX FALLS    SUNNY     68  33  27 NW15      30.00S
HURON          SUNNY     71  34  25 NW10      30.02F
MITCHELL       SUNNY     70  34  26 NW10      30.04F
YANKTON        SUNNY     66  36  32 NW10      30.02F
$$

ABBREVIATIONS USED IN REMARKS
   TC - TEMPERATURE IN CELSIUS
  WCI - WIND CHILL INDEX
   HX - HEAT INDEX
  VSB - VISIBILITY





USA.gov is the U.S. government's official web portal to all federal, state and local government web resources and services.